Weather Roundup
Issued by NWS Chicago, IL

Home | Current Version | Previous Version | Text Only | Print | Product List | Glossary Off
Versions: 1 2 3 4 5 6 7 8 9 10 11 12 13 14 15 16 17 18 19 20 21 22 23 24 25 26 27 28 29 30 31 32 33 34 35 36 37 38 39 40 41 42 43 44 45 46 47 48 49 50

000
NZUS59 KLOT 281302
HRRLOT

CHICAGO AREA WEATHER ROUNDUP
NATIONAL WEATHER SERVICE CHICAGO/ROMEOVILLE IL
800 AM CDT FRI AUG 28 2015

NOTE: "FAIR" INDICATES FEW OR NO CLOUDS BELOW 12,000 FEET WITH NO
SIGNIFICANT WEATHER AND/OR OBSTRUCTIONS TO VISIBILITY.

* THESE STATIONS ARE NOT UNDER NWS QUALITY CONTROL. THEY ALSO MAY NOT
  REPORT WEATHER SUCH AS PRECIPITATION OR FOG.

ILZ005-006-012>014-019>023-281400-
NORTHEAST ILLINOIS

CITY           SKY/WX    TMP DP  RH WIND       PRES   REMARKS
OHARE          CLOUDY    64  58  80 S5        30.14R
MIDWAY         CLOUDY    65  56  72 S3        30.14R
AURORA         CLOUDY    61  58  90 CALM      30.15R FOG
WAUKEGAN       MOSUNNY   62  58  86 CALM      30.14R FOG
DUPAGE AIRPORT CLOUDY    62  57  83 CALM      30.14R
WHEELING       PTSUNNY   62  56  80 CALM      30.15R
NORTHERLY IS     N/A     64  57  78 SE3         N/A
$$

WIZ051-052-058>065-066-070>072-281400-
SOUTHEAST WISCONSIN

CITY           SKY/WX    TMP DP  RH WIND       PRES   REMARKS
MILWAUKEE      PTSUNNY   62  57  83 S6        30.15S HAZE
KENOSHA*       PTSUNNY   62  59  90 CALM      30.15R FOG
RACINE*        MOSUNNY   63  58  83 CALM      30.16R
WAUKESHA       SUNNY     55  55 100 CALM      30.15S FOG
$$

INZ001>003-010>013-019-020-281400-
NORTHWEST INDIANA

CITY           SKY/WX    TMP DP  RH WIND       PRES   REMARKS
GARY*          MOSUNNY   63  57  82 SE5       30.16R
MICHIGAN CITY* NOT AVBL
RENSSELAER*    NOT AVBL
$$

LMZ740>746-281400-
SOUTHERN LAKE MICHIGAN

STATION/POSITION TIME  SKY/WX   TEMP WIND        PRES    VSBY
                                AIR  DIR/SP/G
                 (UTC)          (F)  (DEG/KT/KT) (MB)    (MI)
HARRISON CRIB    1200            62  180/  7/  7   N/A
BURNHAM HARBOR   1300            64  150/  3/  5   N/A
CALUMET HARBOR   1200            61  180/  4/  5   N/A
BURNS HARBOR     1200            62  170/  6/ 11 1021.0R
MICHIGAN CITY    1200            60  130/ 11/ 13   N/A
$$

ABBREVIATIONS USED IN REMARKS
   TC - TEMPERATURE IN CELSIUS
  WCI - WIND CHILL INDEX
   HX - HEAT INDEX
  VSB - VISIBILITY
$$



USA.gov is the U.S. government's official web portal to all federal, state and local government web resources and services.